When you browse on this site, cookies collect data to enhance your experience and personalize the content and advertising you see.
Visit our Privacy Policy to learn more. By continuing to use the site, you agree to this use of cookies and data.
  • En España
  • Lista de países
  • Para 7 días
  • Temperatura del agua
  • Mapa Satelital
  • El tiempo en el mapa
  • Informadores
  • user-avatar
    Iniciar sesión

    Tiempo cada hora Jeddah

    Hoy, 19 Diciembre, Miércoles

    Tiempo Temperatura Precipitaciones Viento Presión Humedad
    00:00 +28°C° 0 mm 5 mps 760 mmHg 63%
    01:00 +28°C° 0 mm 5 mps 759 mmHg 64%
    02:00 +28°C° 0 mm 5 mps 759 mmHg 65%
    03:00 +27°C° 0 mm 4 mps 759 mmHg 71%
    04:00 +27°C° 0 mm 4 mps 759 mmHg 71%
    05:00 +27°C° 0 mm 4 mps 759 mmHg 71%
    06:00 +27°C° 0 mm 4 mps 759 mmHg 72%
    07:00 +27°C° 0 mm 4 mps 760 mmHg 68%
    08:00 +28°C° 0 mm 4 mps 760 mmHg 63%
    09:00 +29°C° 0 mm 3 mps 760 mmHg 57%
    10:00 +30°C° 0 mm 3 mps 760 mmHg 53%
    11:00 +31°C° 0 mm 3 mps 760 mmHg 49%
    12:00 +33°C° 0 mm 3 mps 759 mmHg 45%
    13:00 +33°C° 0 mm 4 mps 759 mmHg 45%
    14:00 +33°C° 0 mm 4 mps 759 mmHg 45%
    15:00 +34°C° 0 mm 5 mps 759 mmHg 45%
    16:00 +33°C° 0 mm 6 mps 759 mmHg 50%
    17:00 +32°C° 0 mm 6 mps 759 mmHg 54%
    18:00 +30°C° 0 mm 6 mps 759 mmHg 59%
    19:00 +29°C° 0 mm 6 mps 759 mmHg 60%
    20:00 +29°C° 0 mm 5 mps 760 mmHg 61%
    21:00 +29°C° 0 mm 5 mps 760 mmHg 63%
    22:00 +29°C° 0 mm 5 mps 760 mmHg 63%
    23:00 +28°C° 0 mm 4 mps 760 mmHg 63%

    Mañana, 20 Diciembre, Jueves

    Tiempo Temperatura Precipitaciones Viento Presión Humedad
    00:00 +28°C° 0 mm 4 mps 760 mmHg 63%
    01:00 +28°C° 0 mm 4 mps 760 mmHg 63%
    02:00 +28°C° 0 mm 4 mps 760 mmHg 64%
    03:00 +28°C° 0 mm 4 mps 760 mmHg 64%
    04:00 +27°C° 0 mm 4 mps 760 mmHg 65%
    05:00 +27°C° 0 mm 4 mps 760 mmHg 65%
    06:00 +27°C° 0 mm 4 mps 760 mmHg 65%
    07:00 +27°C° 0 mm 5 mps 760 mmHg 63%
    08:00 +28°C° 0 mm 5 mps 761 mmHg 61%
    09:00 +28°C° 0 mm 5 mps 761 mmHg 59%
    10:00 +29°C° 0 mm 6 mps 761 mmHg 56%
    11:00 +30°C° 0 mm 6 mps 761 mmHg 52%
    12:00 +32°C° 0 mm 6 mps 761 mmHg 49%
    13:00 +32°C° 0 mm 7 mps 760 mmHg 48%
    14:00 +32°C° 0 mm 7 mps 760 mmHg 46%
    15:00 +33°C° 0 mm 7 mps 759 mmHg 45%
    16:00 +32°C° 0 mm 8 mps 759 mmHg 47%
    17:00 +31°C° 0 mm 8 mps 759 mmHg 49%
    18:00 +29°C° 0 mm 8 mps 760 mmHg 51%
    19:00 +28°C° 0 mm 7 mps 760 mmHg 53%
    20:00 +28°C° 0 mm 7 mps 760 mmHg 54%
    21:00 +28°C° 0 mm 7 mps 761 mmHg 55%
    22:00 +27°C° 0 mm 7 mps 761 mmHg 56%
    23:00 +27°C° 0 mm 7 mps 760 mmHg 57%

    Pasado mañana, 21 Diciembre, Viernes

    Tiempo Temperatura Precipitaciones Viento Presión Humedad
    00:00 +27°C° 0 mm 6 mps 760 mmHg 58%
    01:00 +26°C° 0 mm 6 mps 760 mmHg 60%
    02:00 +26°C° 0 mm 6 mps 760 mmHg 62%
    03:00 +26°C° 0 mm 6 mps 760 mmHg 64%
    04:00 +26°C° 0 mm 6 mps 760 mmHg 65%
    05:00 +24°C° 0 mm 6 mps 760 mmHg 66%
    06:00 +24°C° 0 mm 6 mps 760 mmHg 68%
    07:00 +26°C° 0 mm 6 mps 760 mmHg 64%
    08:00 +26°C° 0 mm 6 mps 760 mmHg 61%
    09:00 +27°C° 0 mm 6 mps 761 mmHg 57%
    10:00 +28°C° 0 mm 6 mps 760 mmHg 52%
    11:00 +29°C° 0 mm 6 mps 760 mmHg 47%
    12:00 +32°C° 0 mm 6 mps 760 mmHg 42%
    13:00 +32°C° 0 mm 6 mps 759 mmHg 42%
    14:00 +33°C° 0 mm 7 mps 758 mmHg 41%
    15:00 +33°C° 0 mm 7 mps 758 mmHg 40%
    16:00 +32°C° 0 mm 7 mps 758 mmHg 45%
    17:00 +30°C° 0 mm 7 mps 758 mmHg 49%
    18:00 +29°C° 0 mm 7 mps 758 mmHg 53%
    19:00 +29°C° 0 mm 7 mps 758 mmHg 54%
    20:00 +28°C° 0 mm 6 mps 759 mmHg 55%
    21:00 +28°C° 0 mm 6 mps 759 mmHg 56%
    22:00 +28°C° 0 mm 6 mps 759 mmHg 56%
    23:00 +27°C° 0 mm 6 mps 759 mmHg 57%

    22 Diciembre, Sábado

    Tiempo Temperatura Precipitaciones Viento Presión Humedad
    00:00 +27°C° 0 mm 6 mps 758 mmHg 57%
    01:00 +27°C° 0 mm 6 mps 758 mmHg 58%
    02:00 +26°C° 0 mm 6 mps 758 mmHg 58%
    03:00 +26°C° 0 mm 6 mps 758 mmHg 59%
    04:00 +26°C° 0 mm 6 mps 758 mmHg 59%
    05:00 +26°C° 0 mm 5 mps 758 mmHg 58%
    06:00 +26°C° 0 mm 5 mps 758 mmHg 58%
    07:00 +27°C° 0 mm 5 mps 758 mmHg 50%
    08:00 +27°C° 0 mm 5 mps 759 mmHg 42%
    09:00 +28°C° 0 mm 5 mps 759 mmHg 34%
    10:00 +30°C° 0 mm 4 mps 759 mmHg 30%
    11:00 +32°C° 0 mm 4 mps 758 mmHg 26%
    12:00 +34°C° 0 mm 3 mps 758 mmHg 22%
    13:00 +34°C° 0 mm 4 mps 758 mmHg 22%
    14:00 +35°C° 0 mm 4 mps 757 mmHg 22%
    15:00 +35°C° 0 mm 4 mps 756 mmHg 22%
    16:00 +34°C° 0 mm 5 mps 757 mmHg 25%
    17:00 +33°C° 0 mm 5 mps 757 mmHg 28%
    18:00 +32°C° 0 mm 5 mps 757 mmHg 30%
    19:00 +32°C° 0 mm 5 mps 758 mmHg 34%
    20:00 +30°C° 0 mm 4 mps 758 mmHg 37%
    21:00 +29°C° 0 mm 4 mps 759 mmHg 40%
    22:00 +29°C° 0 mm 4 mps 758 mmHg 42%
    23:00 +28°C° 0 mm 4 mps 758 mmHg 45%

    23 Diciembre, Domingo

    Tiempo Temperatura Precipitaciones Viento Presión Humedad
    00:00 +28°C° 0 mm 4 mps 758 mmHg 47%
    01:00 +28°C° 0 mm 4 mps 758 mmHg 49%
    02:00 +27°C° 0 mm 4 mps 757 mmHg 51%
    03:00 +27°C° 0 mm 4 mps 757 mmHg 53%
    04:00 +27°C° 0 mm 4 mps 757 mmHg 53%
    05:00 +26°C° 0 mm 3 mps 758 mmHg 54%
    06:00 +26°C° 0 mm 3 mps 758 mmHg 54%
    07:00 +27°C° 0 mm 3 mps 758 mmHg 49%
    08:00 +28°C° 0 mm 2 mps 759 mmHg 44%
    09:00 +29°C° 0 mm 2 mps 759 mmHg 39%
    10:00 +30°C° 0 mm 2 mps 759 mmHg 36%
    11:00 +31°C° 0 mm 2 mps 759 mmHg 34%
    12:00 +32°C° 0 mm 2 mps 759 mmHg 31%
    13:00 +33°C° 0 mm 3 mps 758 mmHg 31%
    14:00 +34°C° 0 mm 3 mps 758 mmHg 32%
    15:00 +34°C° 0 mm 4 mps 758 mmHg 33%
    16:00 +33°C° 0 mm 4 mps 758 mmHg 36%
    17:00 +32°C° 0 mm 4 mps 758 mmHg 39%
    18:00 +32°C° 0 mm 4 mps 758 mmHg 42%
    19:00 +30°C° 0 mm 4 mps 759 mmHg 43%
    20:00 +30°C° 0 mm 3 mps 759 mmHg 45%
    21:00 +29°C° 0 mm 3 mps 760 mmHg 47%
    22:00 +29°C° 0 mm 3 mps 759 mmHg 47%
    23:00 +28°C° 0 mm 3 mps 759 mmHg 48%

    24 Diciembre, Lunes

    Tiempo Temperatura Precipitaciones Viento Presión Humedad
    00:00 +28°C° 0 mm 2 mps 759 mmHg 48%
    01:00 +28°C° 0 mm 2 mps 759 mmHg 48%
    02:00 +27°C° 0 mm 2 mps 758 mmHg 49%
    03:00 +27°C° 0 mm 2 mps 758 mmHg 49%
    04:00 +27°C° 0 mm 2 mps 758 mmHg 50%
    05:00 +26°C° 0 mm 2 mps 759 mmHg 50%
    06:00 +26°C° 0 mm 2 mps 759 mmHg 51%
    07:00 +27°C° 0 mm 2 mps 759 mmHg 47%
    08:00 +28°C° 0 mm 2 mps 759 mmHg 44%
    09:00 +29°C° 0 mm 2 mps 760 mmHg 41%
    10:00 +30°C° 0 mm 2 mps 760 mmHg 38%
    11:00 +31°C° 0 mm 2 mps 759 mmHg 35%
    12:00 +32°C° 0 mm 2 mps 759 mmHg 32%
    13:00 +32°C° 0 mm 2 mps 758 mmHg 32%
    14:00 +34°C° 0 mm 3 mps 758 mmHg 32%
    15:00 +34°C° 0 mm 4 mps 757 mmHg 32%
    16:00 +33°C° 0 mm 4 mps 757 mmHg 37%
    17:00 +32°C° 0 mm 5 mps 758 mmHg 42%
    18:00 +30°C° 0 mm 5 mps 758 mmHg 47%
    19:00 +30°C° 0 mm 4 mps 758 mmHg 50%
    20:00 +30°C° 0 mm 4 mps 759 mmHg 53%
    21:00 +29°C° 0 mm 3 mps 759 mmHg 56%
    22:00 +29°C° 0 mm 3 mps 759 mmHg 57%
    23:00 +28°C° 0 mm 3 mps 759 mmHg 57%
    Mostrar más